ATL087 EDBC-EDBH

Flight info

Callsign ATL087
Flight time 0h 37m
Altitude 28000
Route MAG M736 SOGMA M748 ERNUD/N0417F220 M726 ROSOK
Aircraft C25C/M-SDE2E3FGHRWXY/LB1

Departure

Time 2026-05-07 18:23
Airport Cochstedt Airport (EDBC)

Arrival

Time 2026-05-07 19:01
Airport Stralsund-Barth Airport (EDBH)
Time Latitude Longitude Altitude Speed Heading
2026-05-07 18:10 51.85929 11.42478 593 ft 0 kts 59°
2026-05-07 18:20 51.85913 11.42512 593 ft 16 kts 148°
2026-05-07 18:20 51.85846 11.42426 592 ft 16 kts 258°
2026-05-07 18:20 51.85821 11.42226 595 ft 19 kts 260°
2026-05-07 18:20 51.85792 11.42013 596 ft 21 kts 256°
2026-05-07 18:21 51.85758 11.41771 593 ft 24 kts 256°
2026-05-07 18:21 51.85719 11.41496 592 ft 26 kts 258°
2026-05-07 18:21 51.85680 11.41204 591 ft 28 kts 259°
2026-05-07 18:21 51.85640 11.40899 593 ft 27 kts 256°
2026-05-07 18:22 51.85598 11.40607 591 ft 27 kts 257°
2026-05-07 18:22 51.85571 11.40407 589 ft 27 kts 257°
2026-05-07 18:22 51.85498 11.40095 588 ft 21 kts 199°
2026-05-07 18:22 51.85366 11.40121 584 ft 25 kts 97°
2026-05-07 18:23 51.85445 11.40732 592 ft 107 kts 79°
2026-05-07 18:23 51.85644 11.42315 1159 ft 160 kts 79°
2026-05-07 18:23 51.86071 11.44085 2493 ft 179 kts 52°
2026-05-07 18:23 51.86929 11.45747 3669 ft 203 kts 49°
2026-05-07 18:24 51.87912 11.47576 4704 ft 229 kts 48°
2026-05-07 18:24 51.89192 11.49459 5587 ft 255 kts 40°
2026-05-07 18:24 51.90534 11.51499 6625 ft 274 kts 47°
2026-05-07 18:24 51.91794 11.53700 7614 ft 267 kts 48°
2026-05-07 18:25 51.93087 11.55974 8640 ft 282 kts 48°
2026-05-07 18:25 51.94085 11.58769 9697 ft 295 kts 68°
2026-05-07 18:25 51.95281 11.61441 10659 ft 307 kts 37°
2026-05-07 18:25 51.97316 11.62676 11650 ft 319 kts
2026-05-07 18:26 51.99556 11.62821 12684 ft 326 kts
2026-05-07 18:26 52.01841 11.62951 13752 ft 331 kts
2026-05-07 18:26 52.04147 11.63336 14731 ft 334 kts
2026-05-07 18:26 52.06453 11.63910 15721 ft 336 kts
2026-05-07 18:27 52.08779 11.64386 16742 ft 338 kts
2026-05-07 18:27 52.11122 11.64809 17796 ft 339 kts
2026-05-07 18:27 52.13474 11.65247 18814 ft 341 kts
2026-05-07 18:27 52.15839 11.65720 19776 ft 344 kts
2026-05-07 18:28 52.18224 11.66189 20730 ft 349 kts
2026-05-07 18:28 52.20679 11.66670 21419 ft 362 kts
2026-05-07 18:28 52.23238 11.67162 21946 ft 378 kts
2026-05-07 18:28 52.25888 11.67680 22488 ft 389 kts
2026-05-07 18:29 52.28620 11.68223 22855 ft 400 kts
2026-05-07 18:29 52.31304 11.68748 23237 ft 374 kts
2026-05-07 18:29 52.33986 11.69275 23913 ft 377 kts
2026-05-07 18:29 52.36519 11.69770 24485 ft 384 kts
2026-05-07 18:30 52.39191 11.70295 25094 ft 389 kts
2026-05-07 18:30 52.41893 11.70829 25711 ft 392 kts
2026-05-07 18:30 52.44608 11.71357 26344 ft 394 kts
2026-05-07 18:30 52.47341 11.71905 26988 ft 396 kts
2026-05-07 18:31 52.50109 11.72455 27287 ft 406 kts
2026-05-07 18:31 52.52901 11.73008 27556 ft 414 kts
2026-05-07 18:31 52.55780 11.73572 27831 ft 420 kts
2026-05-07 18:31 52.58698 11.74156 28017 ft 427 kts
2026-05-07 18:32 52.61674 11.74748 28067 ft 435 kts
2026-05-07 18:32 52.67673 11.75944 28089 ft 431 kts
2026-05-07 18:33 52.73602 11.77129 28096 ft 427 kts
2026-05-07 18:33 52.79490 11.78310 28096 ft 425 kts
2026-05-07 18:34 52.85363 11.79496 28095 ft 424 kts
2026-05-07 18:34 52.91216 11.80655 28098 ft 424 kts
2026-05-07 18:35 52.97064 11.81853 28094 ft 423 kts
2026-05-07 18:35 53.02913 11.83029 28100 ft 423 kts
2026-05-07 18:36 53.08756 11.84219 28098 ft 423 kts
2026-05-07 18:36 53.14603 11.85401 28104 ft 423 kts
2026-05-07 18:37 53.20444 11.86601 28104 ft 423 kts
2026-05-07 18:37 53.26283 11.87799 28101 ft 423 kts
2026-05-07 18:38 53.32130 11.89000 28105 ft 423 kts
2026-05-07 18:38 53.37973 11.90192 28103 ft 423 kts
2026-05-07 18:39 53.43818 11.91408 28110 ft 423 kts
2026-05-07 18:39 53.46525 11.91957 28108 ft 423 kts
2026-05-07 18:39 53.49429 11.92570 27649 ft 413 kts
2026-05-07 18:40 53.52214 11.93153 27117 ft 394 kts
2026-05-07 18:40 53.54885 11.93707 26592 ft 380 kts
2026-05-07 18:40 53.57473 11.94242 26075 ft 369 kts
2026-05-07 18:40 53.59988 11.94764 25565 ft 360 kts
2026-05-07 18:41 53.62448 11.95280 25067 ft 353 kts
2026-05-07 18:41 53.64866 11.95783 24578 ft 347 kts
2026-05-07 18:41 53.67245 11.96280 24102 ft 342 kts
2026-05-07 18:41 53.69598 11.96774 23621 ft 339 kts
2026-05-07 18:42 53.71925 11.97256 23065 ft 335 kts
2026-05-07 18:42 53.74230 11.97741 22515 ft 333 kts
2026-05-07 18:42 53.76520 11.98223 21970 ft 330 kts
2026-05-07 18:42 53.78795 11.98705 21454 ft 328 kts
2026-05-07 18:43 53.81060 11.99178 20931 ft 327 kts
2026-05-07 18:43 53.83308 11.99651 20428 ft 325 kts
2026-05-07 18:43 53.85549 12.00126 19931 ft 324 kts
2026-05-07 18:43 53.87777 12.00594 19442 ft 322 kts
2026-05-07 18:44 53.89999 12.01061 18961 ft 321 kts
2026-05-07 18:44 53.92209 12.01525 18488 ft 320 kts
2026-05-07 18:44 53.94411 12.02000 17957 ft 318 kts
2026-05-07 18:44 53.96605 12.02460 17416 ft 317 kts
2026-05-07 18:45 53.98785 12.02920 16888 ft 315 kts
2026-05-07 18:45 54.00955 12.03386 16371 ft 314 kts
2026-05-07 18:45 54.03119 12.03846 15859 ft 313 kts
2026-05-07 18:45 54.05274 12.04304 15356 ft 311 kts
2026-05-07 18:46 54.07419 12.04761 14861 ft 310 kts
2026-05-07 18:46 54.09559 12.05216 14375 ft 309 kts
2026-05-07 18:46 54.11687 12.05676 13892 ft 308 kts
2026-05-07 18:46 54.13815 12.06123 13355 ft 307 kts
2026-05-07 18:47 54.15931 12.06582 12831 ft 306 kts
2026-05-07 18:47 54.18042 12.07030 12311 ft 305 kts
2026-05-07 18:47 54.20079 12.07914 11783 ft 304 kts 27°
2026-05-07 18:47 54.21728 12.10157 11262 ft 304 kts 48°
2026-05-07 18:48 54.22817 12.13212 10774 ft 297 kts 60°
2026-05-07 18:48 54.23790 12.16190 10279 ft 286 kts 60°
2026-05-07 18:48 54.24712 12.19097 9785 ft 278 kts 60°
2026-05-07 18:48 54.25638 12.21950 9247 ft 271 kts 60°
2026-05-07 18:49 54.26541 12.24747 8716 ft 266 kts 60°
2026-05-07 18:49 54.27330 12.27573 8190 ft 262 kts 74°
2026-05-07 18:49 54.27401 12.30671 7677 ft 260 kts 91°
2026-05-07 18:49 54.27343 12.33745 7168 ft 257 kts 90°
2026-05-07 18:50 54.27257 12.36754 6672 ft 249 kts 92°
2026-05-07 18:50 54.27165 12.39663 6281 ft 241 kts 91°
2026-05-07 18:50 54.27089 12.42525 6011 ft 241 kts 91°
2026-05-07 18:50 54.27011 12.45387 5746 ft 240 kts 90°
2026-05-07 18:51 54.26934 12.48243 5493 ft 241 kts 90°
2026-05-07 18:51 54.26859 12.51107 5226 ft 241 kts 91°
2026-05-07 18:51 54.26771 12.53966 4971 ft 241 kts 91°
2026-05-07 18:51 54.26679 12.56827 4714 ft 241 kts 91°
2026-05-07 18:52 54.26591 12.59686 4448 ft 240 kts 91°
2026-05-07 18:52 54.26503 12.62536 4183 ft 240 kts 90°
2026-05-07 18:52 54.26419 12.65356 4088 ft 235 kts 91°
2026-05-07 18:52 54.26318 12.68148 4043 ft 235 kts 91°
2026-05-07 18:53 54.26235 12.70943 4032 ft 236 kts 90°
2026-05-07 18:53 54.26144 12.73744 4032 ft 235 kts 91°
2026-05-07 18:53 54.26054 12.76539 4033 ft 236 kts 90°
2026-05-07 18:53 54.25960 12.79345 4034 ft 237 kts 91°
2026-05-07 18:54 54.25869 12.82159 4036 ft 237 kts 91°
2026-05-07 18:54 54.25779 12.84971 4033 ft 237 kts 90°
2026-05-07 18:54 54.25680 12.87789 4022 ft 234 kts 91°
2026-05-07 18:54 54.25582 12.90489 4020 ft 222 kts 91°
2026-05-07 18:55 54.25552 12.93059 4016 ft 213 kts 81°
2026-05-07 18:55 54.26092 12.95331 4034 ft 205 kts 56°
2026-05-07 18:55 54.27125 12.96993 3838 ft 210 kts 30°
2026-05-07 18:55 54.28524 12.97705 3570 ft 218 kts
2026-05-07 18:56 54.29987 12.97717 3303 ft 204 kts
2026-05-07 18:56 54.31361 12.97727 3082 ft 189 kts
2026-05-07 18:56 54.32530 12.97054 2873 ft 172 kts 330°
2026-05-07 18:56 54.33354 12.95605 2666 ft 174 kts 304°
2026-05-07 18:57 54.33704 12.93602 2447 ft 180 kts 275°
2026-05-07 18:57 54.33705 12.91478 2239 ft 176 kts 273°
2026-05-07 18:57 54.33718 12.89428 2055 ft 162 kts 272°
2026-05-07 18:57 54.33726 12.87675 1904 ft 135 kts 272°
2026-05-07 18:58 54.33735 12.86125 1717 ft 127 kts 272°
2026-05-07 18:58 54.33747 12.84635 1546 ft 124 kts 272°
2026-05-07 18:58 54.33752 12.83172 1371 ft 121 kts 273°
2026-05-07 18:58 54.33775 12.81745 1222 ft 119 kts 271°
2026-05-07 18:59 54.33775 12.80338 1070 ft 119 kts 271°
2026-05-07 18:59 54.33770 12.79408 981 ft 117 kts 271°
2026-05-07 18:59 54.33777 12.78011 827 ft 118 kts 272°
2026-05-07 18:59 54.33795 12.76633 680 ft 114 kts 271°
2026-05-07 19:00 54.33799 12.75274 519 ft 114 kts 269°
2026-05-07 19:00 54.33804 12.73899 350 ft 117 kts 271°
2026-05-07 19:00 54.33810 12.72476 138 ft 122 kts 270°
2026-05-07 19:00 54.33817 12.71129 21 ft 99 kts 270°
2026-05-07 19:01 54.33823 12.70340 8 ft 37 kts 278°
2026-05-07 19:01 54.33817 12.70264 10 ft 20 kts 83°
2026-05-07 19:01 54.33822 12.70615 13 ft 31 kts 90°
2026-05-07 19:01 54.33821 12.70976 19 ft 29 kts 90°
2026-05-07 19:02 54.33818 12.71298 21 ft 25 kts 91°
2026-05-07 19:02 54.33752 12.71420 23 ft 16 kts 180°
2026-05-07 19:02 54.33668 12.71421 23 ft 6 kts 182°
2026-05-07 19:02 54.33646 12.71371 23 ft 6 kts 237°
2026-05-07 19:03 54.33643 12.71354 22 ft 0 kts 269°